Location: Dal�� Lhota
(48.7500°N, 14.0167°E)
Time: 08:22:00
(UTC+00:00)

Explorer 7 - Pass Details

Date: 10 August 2021
Orbit: 484 x 676 km, 50.3° (Epoch: 21 September)

Event Time Altitude Azimuth Distance (km) Brightness Sun altitude
Rises 05:54:45 0° 287° (WNW) 2,586 9.7 19.0°
Reaches altitude 10° 05:56:57 10° 282° (WNW) 1,720 8.8 19.4°
Maximum altitude 06:00:40 46° 208° (SSW) 709 7.4 20.0°
Drops below altitude 10° 06:04:35 10° 135° (SE) 1,805 10.2 20.6°
Sets 06:06:57 0° 129° (SE) 2,730 11.2 21.0°
